GW1942 Weather Reports


Display with metric or nautical units.
time (UTC)temp
F
wind
direction
speed
MPH
gust
MPH
rain 1hr
in
rain 24hr
in
rain mn
in
humidity
%
barometer
mb
20260508001511 75 243 3.0 9.0 0.00 0.03 0.01 28 1009.6
20260508000011 76 285 2.0 5.0 0.00 0.03 0.01 29 1009.6
20260507234513 76 205 3.0 9.0 0.00 0.03 0.01 27 1009.4
20260507233009 76 278 2.0 7.0 0.00 0.03 0.01 27 1009.4
20260507231508 76 307 3.0 7.0 0.00 0.03 0.01 27 1009.5
20260507230007 76 270 4.0 9.0 0.00 0.03 0.01 28 1009.6
20260507224513 76 300 5.0 11.0 0.00 0.03 0.01 30 1009.7
20260507223005 76 194 1.0 7.0 0.00 0.03 0.01 29 1009.8
20260507221501 75 257 1.0 5.0 0.00 0.03 0.01 35 1009.9
20260507220001 75 293 0.0 3.0 0.00 0.03 0.01 35 1010.0
20260507214610 74 63 3.0 5.0 0.00 0.03 0.01 34 1010.2
20260507213107 72 309 0.0 4.0 0.00 0.03 0.01 39 1010.4
20260507211555 73 358 0.0 3.0 0.00 0.03 0.01 40 1010.4
20260507210055 72 210 2.0 8.0 0.00 0.03 0.01 40 1010.5
20260507204601 73 109 1.0 3.0 0.00 0.03 0.01 44 1010.6
20260507203052 73 211 1.0 5.0 0.00 0.03 0.01 39 1010.8
20260507201549 72 69 0.0 3.0 0.00 0.03 0.01 42 1010.7
20260507200049 72 37 4.0 9.0 0.00 0.03 0.01 41 1010.8
20260507194547 71 238 1.0 5.0 0.00 0.03 0.01 40 1010.9
20260507193045 71 51 0.0 4.0 0.00 0.03 0.01 40 1010.9
20260507191541 70 182 1.0 4.0 0.00 0.03 0.01 46 1011.1
20260507190042 69 44 1.0 5.0 0.00 0.03 0.01 47 1011.2
20260507184539 69 269 1.0 3.0 0.00 0.03 0.01 48 1011.6
20260507183040 67 297 2.0 4.0 0.00 0.03 0.01 53 1011.7
20260507181532 66 234 0.0 4.0 0.00 0.03 0.01 58 1011.8
20260507180032 64 274 1.0 4.0 0.00 0.03 0.01 61 1011.9
20260507174530 63 283 1.0 5.0 0.00 0.03 0.01 63 1011.9
20260507173025 62 41 0.0 3.0 0.00 0.03 0.01 68 1012.0
20260507171517 60 96 0.0 1.0 0.00 0.03 0.01 72 1012.1
20260507170015 59 205 0.0 4.0 0.00 0.03 0.01 79 1012.4
20260507164517 57 252 0.0 2.0 0.00 0.03 0.01 80 1012.6
20260507163010 55 51 1.0 4.0 0.00 0.03 0.01 82 1012.7
20260507161510 54 56 0.0 2.0 0.00 0.03 0.01 87 1013.0
20260507160008 53 304 0.0 2.0 0.00 0.03 0.01 86 1013.1
20260507154507 52 55 0.0 2.0 0.00 0.03 0.01 88 1013.3
20260507153006 52 101 0.0 1.0 0.00 0.03 0.01 88 1013.4
20260507151505 51 144 0.0 1.0 0.00 0.03 0.01 89 1013.2
20260507150006 50 188 0.0 2.0 0.00 0.03 0.01 92 1013.2
20260507144501 50 124 0.0 4.0 0.00 0.03 0.01 92 1013.1
20260507143102 50 214 0.0 3.0 0.00 0.03 0.01 92 1012.9
20260507141603 49 198 0.0 3.0 0.00 0.03 0.01 91 1012.8
20260507140121 49 97 0.0 2.0 0.00 0.03 0.01 93 1012.7
20260507134557 48 120 0.0 1.0 0.00 0.03 0.01 94 1012.6
20260507133057 47 55 0.0 2.0 0.00 0.03 0.01 93 1012.7
20260507131607 47 101 0.0 1.0 0.00 0.03 0.01 94 1012.6
20260507130106 46 78 1.0 2.0 0.00 0.03 0.01 92 1012.5
20260507124604 47 86 0.0 4.0 0.00 0.03 0.01 93 1012.2
20260507123057 47 110 0.0 1.0 0.00 0.03 0.01 95 1012.1
20260507121549 46 145 0.0 1.0 0.00 0.03 0.01 95 1011.9
20260507120047 46 207 0.0 1.0 0.00 0.03 0.01 95 1011.9
20260507114548 45 222 0.0 1.0 0.00 0.03 0.01 95 1011.8
20260507113044 45 150 0.0 1.0 0.00 0.03 0.01 95 1011.6
20260507111545 45 130 0.0 1.0 0.00 0.03 0.01 93 1011.6
20260507110039 46 295 0.0 1.0 0.00 0.03 0.01 94 1011.4
20260507104539 46 45 0.0 1.0 0.00 0.03 0.01 94 1011.2
20260507103036 46 118 0.0 1.0 0.00 0.03 0.01 94 1011.0
20260507101541 47 114 0.0 1.0 0.00 0.03 0.01 94 1011.0
20260507100035 47 205 0.0 0.0 0.00 0.03 0.01 94 1011.1
20260507094530 48 214 0.0 1.0 0.00 0.03 0.01 95 1011.2
20260507093037 48 120 0.0 0.0 0.00 0.03 0.01 93 1011.2
20260507091526 48 70 0.0 0.0 0.00 0.03 0.01 94 1011.0
20260507090030 49 70 0.0 1.0 0.00 0.03 0.01 91 1010.9
20260507084519 50 65 0.0 0.0 0.00 0.03 0.01 89 1010.8
20260507083032 51 65 0.0 0.0 0.00 0.03 0.01 90 1010.9
20260507081514 52 65 0.0 1.0 0.00 0.03 0.01 90 1010.8
20260507080010 53 65 0.0 0.0 0.00 0.03 0.01 89 1010.7
20260507074523 53 63 0.0 2.0 0.00 0.03 0.01 88 1010.4
20260507073006 54 98 0.0 3.0 0.01 0.03 0.01 85 1010.3
20260507071505 54 106 0.0 3.0 0.01 0.03 0.01 85 1010.2
20260507070005 55 82 2.0 5.0 0.01 0.03 0.01 82 1010.2
20260507064503 56 44 3.0 11.0 0.01 0.03 0.01 78 1009.8
20260507063100 55 107 5.0 7.0 0.00 0.02 0.00 81 1010.2
20260507061554 55 101 3.0 8.0 0.00 0.02 0.00 81 1010.3
20260507060051 56 81 2.0 6.0 0.02 0.02 0.00 81 1010.2
20260507054602 56 319 0.0 6.0 0.02 0.02 0.02 81 1010.6
20260507053052 57 104 2.0 4.0 0.02 0.02 0.02 77 1010.0
20260507051549 59 100 2.0 3.0 0.01 0.01 0.01 68 1009.9
20260507050048 61 18 1.0 8.0 0.00 0.00 0.00 57 1009.7
20260507044549 60 98 4.0 6.0 0.00 0.00 0.00 61 1009.4
20260507043048 61 84 0.0 2.0 0.00 0.00 0.00 62 1009.6
20260507041546 61 265 1.0 5.0 0.00 0.00 0.00 60 1009.3
20260507040057 61 78 3.0 0.0 0.00 0.00 0.00 61 1009.3
20260507034554 62 78 3.0 8.0 0.00 0.00 0.00 60 1009.2
20260507033045 63 233 0.0 5.0 0.00 0.00 0.00 58 1009.3
20260507031544 64 62 3.0 5.0 0.00 0.00 0.00 57 1009.1
20260507030043 63 161 1.0 6.0 0.00 0.00 0.00 59 1009.1
20260507024543 63 92 1.0 2.0 0.00 0.00 0.00 60 1009.0
20260507023042 66 75 0.0 2.0 0.00 0.00 0.00 56 1008.8
20260507021545 68 269 0.0 1.0 0.00 0.00 0.00 51 1008.7
20260507020043 68 95 0.0 2.0 0.00 0.00 0.00 52 1008.5
20260507014540 69 202 0.0 3.0 0.00 0.00 0.00 45 1008.6
20260507013040 70 193 0.0 6.0 0.00 0.00 0.00 45 1008.6
20260507011540 71 39 1.0 3.0 0.00 0.00 0.00 44 1008.6
20260507010036 71 27 0.0 4.0 0.00 0.00 0.00 42 1008.9
20260507004535 72 8 0.0 3.0 0.00 0.00 0.00 40 1009.0
20260507003035 73 232 0.0 0.0 0.00 0.00 0.00 38 1009.0